Probability
0 1 3 3 1 0 0 0 0 0 1 2 3 2 2 1 2 2 2 1 1 0 0 0 0 1 3 4 5 6 5 3 3 3 3 3 3 3 3 3 2 2 2
0 1 3 4 2 0 0 0 0 0 0 1 2 1 1 2 3 3 3 2 2 1 1 0 0 1 3 5 5 5 4 2 2 3 3 3 3 3 3 3 3 2 2
0 1 3 5 3 1 1 1 1 0 0 0 1 0 1 2 3 3 3 3 3 3 2 1 1 1 2 4 5 5 3 1 1 2 2 3 3 3 3 3 3 3 3
0 1 3 4 3 3 3 4 3 2 0 1 1 1 1 2 3 3 3 3 3 3 3 3 2 2 2 3 3 3 1 0 0 1 1 1 2 3 3 3 3 3 3
0 1 2 3 3 4 5 6 6 4 2 1 2 2 2 2 3 3 3 3 3 3 3 3 3 3 3 2 1 1 0 0 0 0 0 0 1 1 2 3 3 3 3
0 1 2 3 4 5 6 6 6 5 4 3 3 3 2 2 2 3 4 3 3 3 3 3 3 3 3 2 1 0 0 0 0 0 0 0 0 0 1 1 2 2 2
0 1 2 3 4 4 4 4 5 5 4 4 3 3 3 2 2 3 3 3 2 2 2 2 3 2 2 1 0 0 0 0 0 0 0 0 0 0 0 0 0 0 1
0 0 1 2 3 4 4 4 4 5 5 3 3 3 3 2 2 2 2 1 1 1 1 1 1 2 2 2 2 1 0 0 0 0 0 0 0 0 0 0 0 0 0
0 0 0 1 3 5 5 4 4 5 4 3 1 1 2 2 2 1 1 0 0 0 0 0 0 1 2 3 4 3 1 1 0 0 0 0 0 0 0 0 0 0 0
0 0 1 1 3 4 4 4 3 4 4 2 1 0 1 1 0 0 0 1 1 1 0 1 1 2 3 4 6 6 4 2 1 0 0 0 0 0 0 0 0 0 0
0 1 2 3 3 3 3 2 2 3 4 3 1 0 0 0 0 0 0 1 2 2 2 2 3 3 4 5 7 7 6 3 1 1 1 1 1 0 0 0 0 0 0
0 1 2 3 3 3 3 3 3 3 4 3 1 0 0 0 0 0 0 1 1 2 2 3 4 4 5 6 6 7 6 4 3 2 2 2 2 0 0 0 0 0 1
0 1 2 3 3 3 3 3 3 3 3 3 1 0 0 0 0 1 0 0 0 1 1 2 3 3 5 6 6 5 6 6 5 4 2 2 1 0 0 0 0 0 1
0 0 1 1 2 3 2 2 3 3 3 3 2 1 0 0 0 1 1 1 0 0 0 1 2 2 3 5 5 5 5 5 5 5 3 2 1 0 0 0 0 1 1
0 0 0 1 1 1 1 2 3 3 3 3 3 1 0 0 1 2 2 2 2 2 1 1 2 2 2 2 3 4 3 3 3 4 4 2 1 1 0 0 1 1 2
1 0 0 0 0 0 1 2 3 3 3 2 1 0 0 1 2 3 3 4 4 4 4 3 3 3 2 1 1 1 1 1 1 1 1 1 2 2 1 1 1 2 2
3 2 0 0 1 1 1 1 1 2 2 1 0 0 0 1 2 2 3 3 5 6 7 7 5 3 2 1 0 0 0 0 0 0 0 0 1 2 2 2 1 1 1
5 4 2 1 2 2 2 1 0 1 1 1 0 0 0 0 1 2 2 2 4 8 9 7 4 3 2 1 0 0 1 0 0 0 0 0 0 1 1 1 1 0 0
5 4 3 3 3 3 3 2 1 1 0 0 0 0 0 0 1 3 3 2 4 9 9 5 3 3 2 1 0 0 0 0 0 0 0 0 0 0 0 0 0 0 0
4 3 3 3 3 3 3 3 3 2 1 0 0 0 0 0 1 3 3 3 4 8 9 6 4 5 4 3 1 1 0 0 0 0 0 0 0 0 0 0 0 0 0
3 3 3 3 3 3 4 3 3 2 1 0 0 0 0 0 1 2 3 3 4 7 9 8 6 6 6 5 3 2 1 1 0 0 0 0 0 0 0 0 0 0 0
3 3 3 4 4 4 5 4 3 2 1 0 1 2 1 1 1 2 2 3 4 6 8 8 7 5 5 5 4 3 3 2 1 0 0 0 0 0 0 0 0 0 0
3 3 4 5 5 6 6 5 3 3 1 1 2 3 3 2 2 3 3 3 4 6 7 7 6 4 4 5 4 4 3 2 1 1 0 0 0 0 0 0 0 0 0
3 3 5 7 7 7 7 6 5 4 3 2 4 5 4 3 3 3 3 4 5 6 5 4 4 3 4 4 4 4 4 2 1 0 0 0 0 0 0 0 0 0 0
3 3 4 7 7 8 8 8 7 6 4 4 6 7 5 4 3 4 4 4 5 5 4 3 3 4 3 3 4 5 4 2 1 0 0 0 0 0 0 0 0 0 0
3 3 4 6 8 9 10 10 9 6 5 6 7 7 5 4 4 5 5 5 5 4 4 3 4 4 4 4 5 4 4 2 1 0 0 0 0 0 0 0 0 0 0
Wind_Speed
5 7 10 7 6 7 6 7 8 8 8 8 9 9 9 9 9 9 9 10 10 10 10 10 11 12 12 12 13 15 14 14 13 13 13 13 12 11 11 11 10 10 12
6 7 10 7 6 6 6 6 7 7 7 8 8 9 8 8 8 8 9 9 10 10 10 10 10 11 12 13 14 15 14 13 13 12 13 13 12 11 10 8 6 9 11
6 7 9 8 6 6 5 6 6 6 6 7 8 8 8 8 8 8 9 9 9 10 10 10 10 11 13 13 14 14 13 13 12 11 11 10 11 10 10 9 10 10 10
5 6 7 8 6 5 5 5 5 6 6 7 7 7 7 7 8 8 8 9 9 9 9 10 11 12 13 13 13 13 13 12 11 10 7 7 9 11 9 10 10 10 10
6 6 9 6 5 5 5 5 5 6 6 6 6 6 6 6 7 7 8 8 8 9 9 10 11 12 12 12 12 12 12 11 10 9 6 6 7 10 9 9 9 9 9
6 7 9 6 4 5 5 5 5 5 5 5 5 6 6 6 7 7 7 8 8 8 8 9 10 11 11 12 12 11 10 10 9 6 5 5 7 9 9 9 9 9 8
5 6 9 7 5 5 5 5 5 5 5 5 5 5 6 6 7 7 7 7 7 7 8 9 10 10 10 11 11 10 10 8 5 5 5 5 7 8 8 8 8 8 8
5 5 8 9 6 6 6 5 5 5 5 5 5 5 6 6 6 6 6 6 7 7 8 9 10 9 9 9 10 10 8 6 6 6 5 5 8 7 7 7 8 8 8
5 5 5 7 8 8 6 6 5 5 5 5 5 5 5 6 6 6 6 6 7 7 8 8 9 9 9 9 9 9 8 5 4 4 5 5 8 7 6 6 7 7 7
4 4 5 5 4 5 7 7 5 5 5 4 5 4 4 6 7 7 7 6 6 7 7 7 8 9 9 9 9 8 7 6 4 5 3 6 8 7 7 6 7 7 7
5 4 4 5 4 4 5 6 5 6 5 4 5 4 4 3 5 5 6 6 6 6 6 5 8 10 9 10 10 8 7 4 3 2 3 8 8 7 8 7 7 7 7
5 4 4 4 3 3 3 3 2 3 3 2 3 2 2 2 2 4 8 7 6 5 6 5 6 9 7 6 9 9 4 3 2 3 4 8 7 7 7 8 7 7 7
4 3 4 4 2 2 2 2 1 2 2 2 3 1 2 2 2 3 3 5 5 5 4 5 5 3 3 3 2 3 2 1 1 1 5 6 5 6 6 6 6 6 6
3 4 4 3 2 2 1 1 1 1 1 1 3 1 1 2 2 2 1 2 2 2 2 2 2 3 3 3 3 3 3 1 1 1 4 6 4 5 5 5 5 5 6
4 3 3 2 2 2 1 1 1 1 1 2 2 2 1 1 2 2 2 1 1 2 2 2 2 3 3 3 2 3 2 2 1 1 3 6 5 4 5 5 5 5 5
3 3 3 2 2 1 1 0 0 1 1 1 2 3 1 2 2 2 2 2 1 1 1 2 3 3 3 3 3 3 2 2 2 1 2 5 6 4 4 5 5 5 5
3 3 2 2 2 1 0 1 1 1 2 2 2 3 2 2 2 2 2 2 2 2 3 2 2 2 3 3 4 4 3 2 2 2 1 1 3 5 4 4 4 4 5
3 3 2 1 2 1 1 0 0 1 2 2 2 2 3 2 2 2 2 2 2 2 2 2 2 2 2 3 3 3 3 3 3 2 1 1 1 1 5 5 3 4 4
3 3 2 1 1 1 1 1 1 2 1 1 2 2 3 3 2 2 2 2 2 2 2 2 3 2 3 3 3 3 2 2 2 2 2 2 2 1 1 5 5 3 3
4 3 3 2 1 1 1 1 1 2 1 1 2 2 3 2 2 2 2 2 1 2 2 2 3 2 2 2 3 3 2 2 2 2 1 2 2 2 1 2 2 3 3
4 4 3 2 2 1 1 1 1 2 1 2 2 3 3 3 3 2 2 3 2 2 2 3 3 4 3 3 3 3 3 3 3 2 2 2 2 2 3 2 1 1 3
5 4 4 4 3 3 1 1 0 1 1 2 2 3 2 2 2 2 2 2 2 2 3 3 3 2 3 2 1 2 3 4 2 2 1 1 2 2 2 3 2 2 1
6 6 4 4 3 3 2 2 2 2 2 2 2 2 2 2 2 2 2 2 2 2 2 3 3 3 2 3 1 1 0 2 3 3 2 2 2 1 1 2 2 2 1
7 6 5 5 4 3 3 2 2 1 1 2 1 2 3 2 2 2 2 2 2 2 2 3 3 2 2 2 2 0 1 2 0 2 3 3 3 2 2 1 2 2 2
8 7 6 5 5 4 3 3 3 2 2 2 2 3 2 3 2 2 3 2 2 2 2 2 2 2 2 2 2 2 2 2 1 1 2 2 2 2 2 1 1 2 2
8 7 7 7 6 5 4 4 3 2 2 2 2 3 3 2 2 3 3 2 2 2 2 2 2 3 1 1 1 1 2 2 2 1 1 2 2 2 2 2 1 2 1
Wind_Direction
109 109 115 122 115 110 109 113 112 111 111 111 114 114 115 114 115 117 119 121 122 125 127 128 132 136 137 136 136 138 136 134 131 132 132 131 130 130 132 139 146 129 122
109 110 118 118 111 109 111 116 115 115 116 116 116 116 117 116 117 121 121 123 125 125 127 127 128 134 137 137 135 135 136 137 137 139 140 136 132 132 133 134 123 117 128
110 116 124 117 114 112 112 113 116 117 119 119 118 117 119 121 123 126 128 127 128 128 129 128 128 131 136 138 135 136 138 139 142 151 164 149 134 134 134 129 122 125 129
110 116 110 110 115 115 113 112 113 119 119 117 120 120 121 123 127 129 130 129 128 130 132 132 129 131 136 137 137 137 138 141 150 175 170 139 134 132 138 136 134 134 132
112 110 106 110 113 116 114 109 108 111 116 118 121 123 122 122 126 129 130 128 131 134 136 134 133 131 133 136 138 139 141 146 160 188 141 138 130 133 145 142 142 141 137
115 108 107 119 118 118 114 110 111 109 112 115 119 122 125 125 124 127 130 132 135 137 138 136 136 138 140 140 138 140 145 155 181 157 143 143 126 136 149 148 147 145 142
106 109 114 120 119 115 113 111 109 109 109 111 113 119 123 123 123 128 132 136 138 142 142 140 137 140 141 139 139 144 149 169 187 142 147 136 120 136 150 153 154 152 153
107 108 113 128 123 115 112 105 97 97 100 109 115 117 123 125 127 126 129 132 137 142 142 140 140 140 142 142 144 147 153 191 173 152 150 135 121 140 150 153 157 162 163
108 111 117 125 129 130 121 107 97 92 92 98 105 113 122 130 133 133 131 132 134 137 137 141 146 148 147 145 145 148 157 198 204 151 147 128 131 150 158 158 165 170 174
113 116 114 104 108 127 125 117 111 103 97 103 108 115 135 149 148 150 146 130 133 136 138 145 157 156 150 147 146 149 164 200 180 150 145 129 143 164 173 179 186 185 185
114 111 115 111 117 110 102 114 137 136 118 143 131 140 188 153 139 149 117 128 133 134 138 134 145 152 157 156 155 161 183 193 153 138 139 130 158 175 183 188 191 188 192
113 117 110 101 102 99 98 109 115 116 111 96 83 109 125 107 109 119 128 131 129 133 138 127 135 159 179 158 160 178 193 172 158 155 126 140 169 185 191 193 195 192 193
116 116 108 101 87 81 100 105 86 92 100 117 107 111 108 112 123 125 131 143 148 158 152 147 168 156 143 131 159 160 138 171 140 136 124 149 178 193 195 195 198 192 189
108 110 103 105 112 91 61 86 119 101 107 97 112 111 110 112 119 112 124 131 148 141 145 154 135 128 136 140 140 133 139 150 108 98 117 141 170 185 178 171 178 185 190
112 116 108 105 96 98 86 300 81 75 74 100 100 95 85 109 104 111 110 121 133 134 149 152 140 132 131 128 127 124 128 107 104 108 122 134 144 165 177 183 189 195 195
120 112 110 118 105 101 143 132 99 111 111 91 98 95 91 97 99 114 127 119 117 139 130 144 132 134 132 123 124 119 121 110 91 84 119 138 144 153 170 179 184 193 201
125 112 121 136 120 126 196 213 159 105 99 92 100 107 109 107 110 126 124 135 120 123 129 134 130 137 137 135 130 128 126 115 98 87 82 115 144 148 150 162 182 196 204
134 124 131 147 118 111 81 4 33 67 87 98 100 116 122 114 127 131 121 119 119 138 138 131 132 124 118 124 119 115 116 120 114 112 117 114 88 130 147 151 175 195 204
149 142 150 156 133 111 112 128 112 107 87 92 101 104 113 121 127 130 107 104 143 136 125 129 113 117 119 116 122 122 112 115 115 112 95 96 79 55 105 136 159 185 208
160 159 167 173 155 167 158 134 116 102 109 106 102 99 109 120 121 120 128 121 141 123 120 114 122 120 115 124 120 103 99 95 101 94 102 99 87 81 67 91 148 159 160
167 168 174 179 167 198 204 207 136 120 106 104 105 102 115 118 118 122 123 132 145 120 126 139 139 136 136 138 141 127 118 106 93 91 77 71 82 72 62 59 35 83 142
173 176 177 180 175 194 159 176 134 89 105 92 88 104 117 119 122 131 129 148 134 132 136 140 145 150 142 151 175 162 148 137 131 96 98 97 76 74 69 64 54 48 360
179 181 180 178 178 186 179 175 149 152 169 138 125 122 114 114 118 105 126 125 131 142 137 155 166 165 156 152 159 265 183 114 126 121 105 94 80 64 57 65 68 53 25
183 179 175 174 177 179 190 186 178 166 133 105 110 106 120 121 123 124 128 126 137 133 144 174 157 175 187 166 150 123 25 61 159 127 125 111 102 74 43 35 63 74 47
180 176 171 169 173 177 188 176 190 178 151 138 122 116 132 129 137 137 141 136 140 138 136 148 158 195 191 192 162 145 137 143 180 165 120 122 106 81 69 58 57 60 55
180 178 172 169 176 179 185 186 196 174 160 140 135 135 155 139 139 144 149 146 147 138 145 161 174 176 185 192 215 176 170 169 163 142 139 150 113 84 70 55 62 74 72